Location: Harwich
(41.7160°N, 69.9939°W)
Time: 09:29:09
(UTC+02:00)

A-11 Canister half - Pass Details

Date: 29 February 2024
Orbit: 1513 x 1686 km, 47.2° (Epoch: 24 April)

Event Time Altitude Azimuth Distance (km) Brightness Sun altitude
Exits shadow 10:05:11 31° 295° (WNW) 2,639 9.8 -25.0°
Maximum altitude 10:10:44 67° 9° (N) 1,766 9.3 -24.0°
Drops below altitude 10° 10:20:29 10° 91° (E) 3,821 12.2 -22.2°
Sets 10:23:35 0° 95° (E) 4,783 13.0 -21.6°
